SL-14 DEB, 45310

Orbit data source: Space-Track

SL-14 DEB, 45310 is space debris in LEO originally from a launch on Thu, 15 Aug 1991 UTC launched from the Plesetsk Missile And Space Complex (PKMTR). Debris objects in space refer to the collection of defunct objects orbiting the Earth. Examples of debris include non-operational satellites, rocket bodies, and fragments generated from explosions, collisions, or faulty payload assembly.

Loading next visibility...
Identifier
45310, 1991-056AY
Orbit
LEO
Country
Flag of CISCIS
Related business
Manufacturer
Unknown
Mission
Spacecraft
Bus & Motor
Unknown
Mass
Unknown
Launch date (UTC)
1991-08-15 (34 years ago)
Launch vehicle
Unknown
Launch site
Plesetsk Missile And Space Complex (PKMTR)
Object type
Payload
Rocket body
Debris
Shape & HBR
Unknown shape, 0.1 m
Radar Cross Section
Small (<0.1 m²)

Expand to show TLE details & history
Last TLE update: 1 day ago

TLE from 1 day ago
0 SL-14 DEB
1 45310U 91056AY  25352.35997509 -.00000022  00000-0 -11562-3 0  9992
2 45310  82.5963 326.9700 0102194 153.8378 206.7949 12.97814672275319
Epoch: 2025-12-18T08:38Z
TLE epoch observation values (Epoch: 2025-12-18T08:38:21.847Z)
Latitude
Longitude
110.16237°
Altitude
1,343.392 km
Speed
7.153 km/s
True Right ascension
21h 47m 52s
True Declination
0° 00' 00"
Sunlit
Object was in daylight at epoch
Visualization orbit readout
Latitude
Unknown
Longitude
Unknown
Altitude
Unknown
Speed
Unknown
Apparent Right ascension
Unknown
Apparent Declination
Unknown
Sunlit
N/A
Visualization observer readout
Local Sidereal Time
12:43:18
Azimuth
Unknown
Elevation
Unknown
Doppler factor
Unknown
Orbital elements
Apogee altitude
1,346.072 km
Perigee altitude
1,189.796 km
Semi-major axis
7,646.071 km
Eccentricity
0.01022
Inclination
82.5963°
RAAN
326.97°
Arg. of periapsis
153.8378°
True anomaly
206.27295°
Mean anomaly
206.7949°
Eccentric anomaly
206.53333°
Mean motion
3.24628 °/min
Orbital period
110.9 mins
BSTAR
-0.00011562
Loading maneuver chart data...
Computing Atmospheric mass density...
Loading historical data...
Loading historical data...
Loading historical data...
Loading historical data...
Loading historical data...
Loading historical data...
Loading historical data...

Documentation

Showing up to 5 results
|